DW3637 Weather Reports


Display with metric or nautical units.
time (UTC)temp
F
wind
direction
speed
MPH
gust
MPH
rain 1hr
in
rain 24hr
in
rain mn
in
humidity
%
barometer
mb
20260505172516 79 248 6.0 13.0 0.00 0.00 0.00 44 1006.4
20260505171521 79 248 6.0 14.0 0.00 0.00 0.00 45 1006.6
20260505170516 78 248 5.0 9.0 0.00 0.00 0.00 46 1006.6
20260505165516 78 248 4.0 11.0 0.00 0.00 0.00 47 1006.8
20260505164516 78 248 5.0 12.0 0.00 0.00 0.00 48 1007.1
20260505163515 77 225 5.0 12.0 0.00 0.00 0.00 49 1007.2
20260505162516 77 248 5.0 12.0 0.00 0.00 0.00 50 1007.4
20260505161516 76 248 5.0 11.0 0.00 0.00 0.00 51 1007.6
20260505160532 75 248 5.0 11.0 0.00 0.00 0.00 51 1007.6
20260505152516 70 248 4.0 10.0 0.00 0.00 0.00 59 1008.5
20260505151556 69 248 4.0 9.0 0.00 0.00 0.00 60 1008.6
20260505150516 68 248 4.0 8.0 0.00 0.00 0.00 61 1008.7
20260505140518 65 248 1.0 3.0 0.00 0.00 0.00 69 1009.0
20260505124518 60 248 3.0 9.0 0.00 0.00 0.00 76 1009.3
20260505123517 59 248 4.0 8.0 0.00 0.00 0.00 76 1009.3
20260505122537 59 248 3.0 8.0 0.00 0.00 0.00 77 1009.2
20260505121517 58 248 3.0 6.0 0.00 0.00 0.00 79 1009.2
20260505120517 57 248 3.0 8.0 0.00 0.00 0.00 81 1009.4
20260505115517 56 248 2.0 5.0 0.00 0.00 0.00 83 1009.5
20260505114518 56 248 2.0 4.0 0.00 0.00 0.00 83 1009.4
20260505113517 56 248 2.0 5.0 0.00 0.00 0.00 83 1009.6
20260505112517 55 248 2.0 5.0 0.00 0.00 0.00 85 1009.5
20260505111519 55 248 3.0 9.0 0.00 0.00 0.00 85 1009.4
20260505110517 55 248 1.0 6.0 0.00 0.00 0.00 85 1009.1
20260505101537 53 248 2.0 5.0 0.00 0.00 0.00 86 1008.7
20260505100558 53 248 2.0 5.0 0.00 0.00 0.00 86 1008.5
20260505095537 52 225 1.0 4.0 0.00 0.00 0.00 86 1008.6
20260505094517 52 248 1.0 4.0 0.00 0.00 0.00 85 1008.5
20260505093537 52 248 1.0 3.0 0.00 0.00 0.00 85 1008.6
20260505092521 52 0.0 1.0 0.00 0.00 0.00 84 1008.7
20260505091520 52 0.0 1.0 0.00 0.00 0.00 83 1008.8
20260505090517 52 248 1.0 3.0 0.00 0.00 0.00 83 1008.8
20260505085520 52 0.0 1.0 0.00 0.00 0.00 82 1008.7
20260505084517 53 0.0 3.0 0.00 0.00 0.00 82 1008.7
20260505083517 53 0.0 2.0 0.00 0.00 0.00 81 1008.7
20260505082517 53 0.0 4.0 0.00 0.00 0.00 80 1008.9
20260505081517 53 225 1.0 2.0 0.00 0.00 0.00 80 1008.9
20260505080557 53 0.0 2.0 0.00 0.00 0.00 79 1008.8
20260505075518 54 248 1.0 3.0 0.00 0.00 0.00 78 1008.9
20260505074517 54 248 1.0 3.0 0.00 0.00 0.00 78 1009.1
20260505073517 54 248 1.0 3.0 0.00 0.00 0.00 78 1009.0
20260505072537 53 248 1.0 3.0 0.00 0.00 0.00 78 1009.0
20260505071519 53 248 1.0 4.0 0.00 0.00 0.00 78 1009.1
20260505070517 53 248 1.0 3.0 0.00 0.00 0.00 78 1009.0
20260505065517 53 248 1.0 3.0 0.00 0.00 0.00 78 1009.1
20260505064517 53 248 1.0 4.0 0.00 0.00 0.00 79 1009.1
20260505063517 53 0.0 1.0 0.00 0.00 0.00 79 1009.0
20260505062537 53 0.0 0.0 0.00 0.00 0.00 78 1009.2
20260505061517 53 0.0 1.0 0.00 0.00 0.00 78 1009.2
20260505060557 53 0.0 2.0 0.00 0.00 0.00 78 1009.3
20260505055520 53 0.0 2.0 0.00 0.00 0.00 77 1009.4
20260505054517 53 248 1.0 2.0 0.00 0.00 0.00 77 1009.4
20260505053537 54 248 1.0 3.0 0.00 0.00 0.00 76 1009.4
20260505052536 54 248 1.0 3.0 0.00 0.00 0.00 76 1009.5
20260505051517 54 225 2.0 4.0 0.00 0.00 0.00 75 1009.5
20260505050517 54 248 1.0 3.0 0.00 0.00 0.00 75 1009.5
20260505041518 55 225 1.0 3.0 0.00 0.00 0.00 72 1009.7
20260505040518 56 248 2.0 5.0 0.00 0.00 0.00 71 1009.6
20260505035518 56 248 2.0 6.0 0.00 0.00 0.00 71 1009.5
20260505034517 56 248 3.0 9.0 0.00 0.00 0.00 70 1009.5
20260505033517 56 248 2.0 5.0 0.00 0.00 0.00 69 1009.5
20260505032517 56 225 2.0 6.0 0.00 0.00 0.00 68 1009.5
20260505031517 57 248 2.0 4.0 0.00 0.00 0.00 67 1009.4
20260505030524 57 248 2.0 7.0 0.00 0.00 0.00 66 1009.3
20260505025526 57 248 2.0 6.0 0.00 0.00 0.00 66 1009.3
20260505024517 58 248 2.0 9.0 0.00 0.00 0.00 65 1009.3
20260505023517 58 225 3.0 6.0 0.00 0.00 0.00 64 1009.3
20260505022516 58 225 3.0 6.0 0.00 0.00 0.00 62 1009.3
20260505021517 59 225 3.0 12.0 0.00 0.00 0.00 61 1009.4
20260505020517 59 248 2.0 6.0 0.00 0.00 0.00 60 1009.4
20260505015525 60 225 3.0 6.0 0.00 0.00 0.00 59 1009.2
20260505014517 60 225 3.0 5.0 0.00 0.00 0.00 58 1009.2
20260505013517 60 248 3.0 6.0 0.00 0.00 0.00 58 1009.2
20260505012517 61 248 4.0 9.0 0.00 0.00 0.00 57 1009.0
20260505011527 61 248 5.0 9.0 0.00 0.00 0.00 56 1008.8
20260505010517 61 248 3.0 12.0 0.00 0.00 0.00 55 1008.7
20260505005520 62 248 3.0 6.0 0.00 0.00 0.00 55 1008.5
20260505004517 62 248 3.0 11.0 0.00 0.00 0.00 54 1008.3
20260505003517 62 225 3.0 10.0 0.00 0.00 0.00 53 1008.2
20260505002536 63 248 4.0 10.0 0.00 0.00 0.00 53 1007.9
20260505001517 63 248 4.0 14.0 0.00 0.00 0.00 51 1007.6
20260505000517 64 248 4.0 16.0 0.00 0.00 0.00 50 1007.5
20260504235517 64 248 5.0 13.0 0.00 0.00 0.00 49 1007.3
20260504234540 65 270 2.0 6.0 0.00 0.00 0.00 48 1007.2
20260504233517 66 248 4.0 8.0 0.00 0.00 0.00 46 1007.0
20260504232517 67 248 4.0 11.0 0.00 0.00 0.00 45 1006.8
20260504231517 68 248 4.0 11.0 0.00 0.00 0.00 43 1006.7
20260504230536 68 248 5.0 12.0 0.00 0.00 0.00 43 1006.4
20260504225516 69 248 4.0 10.0 0.00 0.00 0.00 41 1006.3
20260504224516 70 248 5.0 9.0 0.00 0.00 0.00 40 1006.2
20260504223516 70 248 5.0 12.0 0.00 0.00 0.00 39 1006.2
20260504222516 72 225 4.0 12.0 0.00 0.00 0.00 36 1006.2
20260504221516 73 248 3.0 6.0 0.00 0.00 0.00 31 1006.2
20260504220516 73 293 3.0 8.0 0.00 0.00 0.00 31 1006.1
20260504215516 72 315 2.0 8.0 0.00 0.00 0.00 32 1006.2
20260504214516 73 248 4.0 12.0 0.00 0.00 0.00 31 1006.2
20260504213517 73 270 3.0 9.0 0.00 0.00 0.00 31 1006.2
20260504212517 74 248 3.0 11.0 0.00 0.00 0.00 31 1006.3
20260504211516 74 270 5.0 10.0 0.00 0.00 0.00 30 1006.3
20260504210516 74 293 5.0 12.0 0.00 0.00 0.00 30 1006.2
20260504205518 74 248 4.0 9.0 0.00 0.00 0.00 30 1006.3
20260504204536 74 270 3.0 7.0 0.00 0.00 0.00 31 1006.3
20260504203536 74 248 5.0 10.0 0.00 0.00 0.00 32 1006.3
20260504202516 74 315 5.0 13.0 0.00 0.00 0.00 30 1006.3
20260504201536 74 248 5.0 13.0 0.00 0.00 0.00 30 1006.4
20260504200516 74 315 5.0 10.0 0.00 0.00 0.00 31 1006.4
20260504195524 73 248 4.0 15.0 0.00 0.00 0.00 31 1006.4
20260504194516 73 248 4.0 10.0 0.00 0.00 0.00 31 1006.5
20260504193556 74 248 4.0 9.0 0.00 0.00 0.00 30 1006.7
20260504192516 73 315 5.0 13.0 0.00 0.00 0.00 33 1006.7
20260504191536 73 248 5.0 13.0 0.00 0.00 0.00 31 1006.7
20260504190517 73 248 5.0 13.0 0.00 0.00 0.00 31 1006.7
20260504185516 73 23 3.0 6.0 0.00 0.00 0.00 33 1006.9
20260504184516 73 293 4.0 9.0 0.00 0.00 0.00 32 1007.0
20260504183516 72 293 6.0 16.0 0.00 0.00 0.00 31 1007.1
20260504182536 73 315 3.0 9.0 0.00 0.00 0.00 34 1007.0
20260504181542 72 293 5.0 11.0 0.00 0.00 0.00 32 1007.3
20260504180516 72 315 5.0 14.0 0.00 0.00 0.00 33 1007.3
20260504175516 72 270 5.0 13.0 0.00 0.00 0.00 32 1007.4
20260504174519 71 270 6.0 15.0 0.00 0.00 0.00 32 1007.3
20260504173516 71 248 4.0 9.0 0.00 0.00 0.00 31 1007.4